Wind_Speed
11 11 11 11 11 11 12 12 10 9 8 7 6 5 4 3 3 4 5 5 5 4 4 3 3 4 5 5 6 6 6 6 6 6 6 5 5 4 4 3 4 4 4 4 4 4 4 4 4
11 11 12 12 11 11 14 13 12 11 9 8 7 7 6 5 6 6 6 6 6 6 5 5 5 6 6 7 7 8 7 7 7 7 7 7 6 6 5 5 5 5 5 6 5 5 5 5 5
12 12 12 12 13 14 16 14 13 12 11 10 9 9 8 7 7 7 6 6 6 7 7 7 7 7 8 9 9 10 9 9 9 9 8 8 7 7 7 7 7 7 7 7 7 7 6 6 6
13 13 13 14 15 17 17 15 13 12 12 11 10 10 9 8 8 8 8 8 8 8 8 8 9 9 9 10 11 11 11 11 10 10 10 9 9 8 8 9 9 9 8 8 8 8 8 8 7
15 14 14 15 17 18 17 16 14 13 12 11 11 10 9 9 10 10 11 10 10 9 10 10 10 9 10 11 12 12 12 12 12 12 12 11 10 10 10 10 10 10 10 9 9 9 9 9 9
16 15 15 17 18 18 17 16 15 14 13 12 12 11 10 11 11 12 12 12 11 11 11 11 10 10 11 12 13 13 14 13 13 13 13 12 12 12 12 12 12 12 11 11 11 10 11 10 10
17 16 17 19 20 20 18 17 16 15 14 13 13 13 13 12 13 13 13 14 13 13 13 12 13 13 13 13 14 15 15 15 15 15 15 14 14 14 13 13 13 13 13 12 12 11 11 12 11
17 17 18 20 20 21 19 18 17 15 15 14 14 15 14 14 14 14 14 13 14 14 14 15 15 15 15 15 15 16 16 17 17 17 16 15 14 15 14 14 14 14 14 14 13 13 13 13 13
17 17 19 21 21 21 20 19 18 17 16 16 16 16 15 14 15 15 14 15 15 14 14 15 16 15 14 15 16 17 17 17 17 17 17 17 16 16 15 15 15 15 15 15 14 15 15 14 13
18 19 21 21 21 21 20 20 18 17 17 16 17 17 16 15 16 16 17 16 15 14 14 15 16 16 16 16 18 18 18 18 17 18 19 18 17 17 17 16 16 16 16 16 16 16 15 15 15
19 20 20 21 21 20 20 20 19 18 18 17 16 16 16 16 17 17 17 16 15 14 15 15 15 15 16 16 17 18 18 18 18 18 19 20 20 19 19 19 18 18 18 18 17 17 17 16 16
20 20 20 20 20 20 20 20 19 18 18 18 18 18 17 18 18 18 18 16 15 15 15 16 16 15 15 15 16 16 17 17 18 19 19 20 21 20 20 21 20 20 20 20 19 19 18 18 18
20 20 20 19 19 20 20 20 20 19 18 18 19 18 18 18 18 19 17 16 16 16 15 16 16 16 16 16 16 16 18 19 19 19 20 21 22 22 22 23 23 23 22 22 22 21 20 20 20
19 19 19 19 19 19 19 20 20 19 18 18 18 18 18 18 19 18 17 16 16 16 16 16 16 16 16 17 18 18 19 20 20 20 21 22 23 23 24 24 25 25 24 24 23 22 23 22 22
17 18 18 18 18 19 19 20 20 19 18 18 18 18 18 19 19 18 17 17 17 17 17 17 16 16 17 18 18 18 19 21 22 21 22 22 23 24 24 24 25 26 25 25 24 24 23 23 23
15 15 16 17 18 18 17 19 19 18 18 18 18 18 18 19 18 17 17 17 18 18 18 18 17 16 17 18 19 19 20 21 22 22 22 23 23 24 25 25 25 26 26 26 26 25 24 24 25
15 15 16 17 18 18 18 19 19 19 18 18 18 18 18 18 17 16 17 17 17 17 17 18 17 16 16 17 19 19 20 21 22 23 22 23 24 24 25 25 25 25 26 26 26 26 26 26 26
15 15 16 17 18 18 18 19 19 19 19 18 18 18 18 17 16 17 17 17 17 17 17 17 17 17 18 18 18 20 21 23 23 23 23 24 25 25 26 26 26 26 27 27 27 27 27 27 27
15 15 16 17 16 17 18 19 19 19 19 19 19 19 18 18 18 18 18 18 17 16 16 16 17 18 19 19 20 21 22 23 24 24 25 26 26 26 27 27 27 26 27 27 28 28 28 28 28
13 14 15 16 16 16 17 18 18 18 18 19 19 19 18 19 19 19 19 19 18 17 17 18 18 18 19 20 21 22 22 23 24 25 25 26 26 27 28 28 28 28 28 29 29 29 29 29 29
12 12 13 14 14 15 16 17 17 17 17 18 19 19 18 19 19 20 19 19 19 19 19 19 19 19 19 20 22 23 24 24 25 26 26 26 27 28 29 29 30 30 30 31 31 32 31 31 31
11 11 12 11 11 13 13 14 16 16 16 17 18 18 18 19 19 19 20 20 20 20 20 20 21 21 21 21 23 24 24 24 25 27 27 28 28 29 30 31 31 32 32 32 32 31 31 31 31
12 11 11 11 11 12 12 12 15 16 16 16 17 18 18 19 19 20 21 21 22 22 22 21 22 23 22 22 23 24 25 26 27 28 28 29 30 30 31 32 33 33 33 33 32 31 32 32 31
11 10 11 11 11 12 13 12 14 15 16 17 17 18 18 19 20 21 21 21 21 22 22 22 23 24 24 24 24 24 25 26 27 28 29 30 31 32 32 33 33 33 33 33 33 33 33 32 32
10 9 9 9 11 12 15 14 15 15 15 16 17 17 18 18 19 20 20 20 21 21 23 23 23 23 24 24 24 25 25 26 27 29 30 31 32 32 33 34 34 34 35 34 34 34 34 33 32
10 10 10 10 11 12 15 14 14 14 15 16 16 16 17 17 17 18 19 20 21 22 23 22 23 25 25 25 25 25 26 26 27 28 29 29 30 31 32 32 32 33 33 33 33 33 33 33 32
9 10 12 12 12 12 14 15 14 14 15 16 16 17 17 18 18 19 20 21 21 23 23 22 23 25 25 25 25 24 24 24 24 25 25 26 27 27 28 29 30 29 30 31 31 31 31 32 32
9 10 10 9 10 11 13 14 15 15 15 16 16 17 18 19 20 20 21 21 22 23 23 23 23 24 24 24 24 23 22 23 23 23 23 24 24 24 25 25 26 27 28 28 29 30 30 30 31
9 10 10 11 12 11 12 14 15 15 15 16 16 17 18 19 20 20 20 21 22 23 23 23 23 23 23 23 22 22 22 22 22 23 23 23 23 23 23 22 23 24 25 25 25 26 27 27 28
10 10 10 11 12 12 13 15 15 15 16 16 16 17 17 18 19 19 20 21 21 22 22 22 22 22 22 21 20 20 20 21 22 22 23 22 22 22 23 22 22 22 23 23 23 23 23 24 25
Wind_Direction
235 233 232 230 231 235 238 242 243 243 241 240 239 230 225 238 261 261 271 273 267 266 256 247 247 259 263 262 261 258 254 251 249 250 254 259 263 267 274 285 297 306 317 311 305 314 318 324 328
234 233 231 230 229 234 242 243 243 245 246 243 244 243 247 259 274 278 282 279 277 280 271 263 261 265 268 265 259 257 257 258 254 254 257 260 264 267 273 280 286 291 300 302 291 296 299 305 310
234 232 231 228 228 226 239 243 244 246 245 244 246 248 252 264 275 282 284 280 281 285 279 270 266 267 269 266 260 258 256 256 256 256 255 259 264 270 273 278 280 282 284 289 286 289 289 291 294
234 234 232 231 232 236 241 244 246 247 246 246 249 250 256 267 276 282 284 287 290 290 284 279 271 268 267 266 262 257 253 253 254 254 254 256 259 263 269 273 275 275 276 278 278 283 286 286 285
234 235 235 235 238 241 243 244 245 247 246 248 251 256 263 274 277 278 282 285 289 292 285 281 278 271 269 267 263 257 252 252 254 254 254 256 255 258 263 267 269 269 270 272 272 277 282 282 280
235 235 233 236 242 243 245 245 246 247 248 249 252 257 266 275 279 281 282 285 289 293 289 280 278 273 270 270 267 260 256 254 256 256 256 255 256 259 260 261 264 266 266 267 269 272 276 280 278
233 232 231 236 242 244 245 246 244 245 247 249 252 259 267 274 280 281 282 285 290 290 286 281 277 271 267 266 263 262 257 256 256 257 257 256 257 259 259 261 262 263 265 266 268 270 273 274 276
232 231 232 236 239 243 245 245 244 245 247 250 252 257 265 273 280 283 285 286 291 289 286 281 276 272 268 267 264 260 256 256 256 254 255 257 259 259 259 261 262 263 264 266 268 269 271 273 272
231 228 230 234 237 242 243 243 246 248 248 250 254 259 266 274 280 284 285 289 292 290 290 281 269 265 262 263 261 254 257 256 255 255 255 257 258 258 261 262 262 263 264 266 268 270 270 272 272
229 227 231 235 238 242 243 244 246 248 251 254 259 262 266 274 279 281 285 286 287 287 288 282 268 261 260 264 258 254 255 256 256 257 255 257 258 259 262 263 263 264 266 265 266 267 269 270 271
231 231 234 236 238 242 244 245 247 249 253 257 261 266 270 275 278 281 284 283 282 281 282 279 275 267 264 264 258 255 255 254 255 258 257 258 260 261 263 264 264 264 265 266 266 265 267 269 270
233 234 234 236 238 241 244 246 246 248 253 258 261 264 269 277 279 280 285 283 281 280 280 280 274 268 267 266 261 257 257 258 260 259 259 260 260 261 263 263 264 264 265 265 265 265 264 267 268
232 234 234 235 237 241 245 247 251 252 256 259 264 268 272 276 276 279 280 281 282 283 280 278 276 275 271 266 258 259 263 262 263 263 261 262 261 262 263 263 265 266 266 265 265 265 264 266 267
230 231 233 235 237 241 244 249 252 255 259 262 265 270 274 276 277 278 280 283 281 276 274 276 276 276 272 268 263 261 263 263 264 264 264 263 262 263 265 265 265 266 266 266 267 267 266 266 266
228 230 232 235 238 241 244 249 253 257 260 262 265 270 273 275 277 277 279 280 278 276 274 275 273 273 270 267 263 263 263 263 263 263 264 265 263 262 265 266 266 267 267 268 267 267 268 267 266
226 227 233 236 239 242 242 246 252 257 261 263 267 270 272 274 276 276 276 278 278 276 275 273 273 271 272 266 263 263 263 262 261 262 264 266 265 263 265 266 267 267 267 267 267 266 265 265 266
222 221 230 235 237 240 242 246 252 258 262 265 268 272 273 275 276 278 278 276 275 276 275 272 271 272 276 270 264 264 264 264 264 263 265 266 266 265 265 266 267 267 267 267 266 267 265 265 265
219 222 230 237 240 243 246 252 256 258 262 265 267 270 271 273 277 281 281 276 276 278 274 271 273 273 274 272 269 268 268 266 265 265 266 265 265 265 266 267 268 268 267 267 266 267 266 265 265
221 226 234 240 244 247 251 256 260 262 264 265 265 266 267 270 275 279 280 280 282 281 278 277 278 275 275 274 272 271 269 268 266 266 266 266 265 265 266 267 268 269 268 268 267 267 266 265 266
223 228 236 243 247 251 255 258 263 263 262 263 264 265 266 269 272 276 277 278 278 279 280 281 280 277 276 277 276 274 272 270 269 268 266 266 267 267 267 267 268 269 269 269 267 267 265 265 265
223 227 237 247 252 254 258 262 264 264 262 262 263 263 266 268 271 274 275 277 276 276 278 281 280 279 278 278 278 278 275 272 269 268 269 268 268 269 269 268 269 269 269 270 270 268 268 268 267
228 233 239 248 253 258 260 263 267 266 262 260 263 264 266 267 268 270 274 277 278 277 278 279 280 280 280 280 280 278 276 274 274 272 272 271 271 271 271 270 269 269 270 270 269 267 267 268 267
229 236 241 246 248 254 262 261 264 264 263 261 262 263 265 268 269 274 278 279 278 279 281 279 282 282 281 281 281 278 276 275 274 273 274 275 275 273 273 272 272 271 270 270 269 267 266 266 266
236 241 248 251 253 259 261 263 268 266 266 264 263 262 265 269 273 277 278 280 281 282 283 281 283 285 285 283 281 279 278 277 275 275 276 276 276 275 274 274 272 272 271 270 269 268 267 266 266
238 238 252 258 258 260 264 267 267 267 267 266 267 268 269 272 275 275 278 281 280 282 283 283 284 287 289 288 285 281 280 279 278 278 279 278 277 276 274 274 273 272 271 270 270 269 267 266 266
241 235 238 248 254 262 271 271 271 268 268 267 268 271 274 276 277 276 278 280 281 284 286 287 287 287 287 286 287 285 282 280 280 281 280 280 279 278 276 275 275 272 271 271 271 269 267 266 266
246 245 241 249 256 261 268 273 274 272 273 271 270 271 274 276 278 279 279 281 282 285 287 289 290 289 289 288 290 289 287 285 282 282 282 281 280 279 278 277 275 274 274 273 270 269 267 266 265
243 252 253 249 260 265 272 276 274 276 276 276 275 275 275 278 280 281 282 284 286 287 287 287 288 290 293 293 292 290 289 287 286 286 286 285 283 282 281 280 277 276 275 274 271 267 266 265 265
255 260 258 253 251 259 267 272 275 277 279 280 279 280 280 282 282 282 282 283 285 287 289 288 288 290 292 293 291 290 290 291 290 289 289 287 285 283 282 284 282 278 276 276 274 271 267 266 266
257 258 260 261 264 264 264 268 275 278 281 283 283 284 285 283 283 283 283 284 288 290 292 291 290 291 292 292 293 293 292 292 292 291 290 286 284 283 286 287 284 282 280 277 275 274 270 269 267
Height
5901 5902 5904 5906 5908 5910 5910 5910 5911 5912 5913 5914 5915 5915 5916 5916 5917 5919 5916 5915 5915 5915 5914 5915 5915 5915 5916 5916 5916 5916 5915 5915 5915 5915 5915 5915 5915 5915 5915 5915 5915 5914 5914 5914 5914 5914 5914 5913 5913
5899 5900 5902 5904 5906 5908 5908 5908 5909 5910 5911 5912 5913 5914 5914 5914 5914 5914 5913 5913 5913 5913 5913 5913 5913 5914 5914 5914 5914 5914 5914 5914 5914 5914 5914 5914 5914 5914 5914 5914 5914 5913 5913 5913 5913 5912 5912 5912 5912
5896 5898 5901 5902 5904 5906 5905 5906 5907 5908 5909 5910 5911 5912 5912 5912 5912 5912 5912 5911 5911 5911 5911 5911 5911 5911 5912 5912 5912 5912 5912 5912 5912 5912 5912 5912 5912 5912 5912 5912 5912 5912 5911 5911 5911 5911 5911 5911 5910
5894 5896 5899 5901 5901 5901 5902 5904 5905 5906 5907 5909 5909 5910 5910 5910 5910 5910 5909 5909 5909 5909 5908 5909 5908 5909 5909 5909 5909 5909 5909 5909 5909 5909 5910 5910 5910 5910 5910 5910 5910 5910 5910 5910 5910 5910 5909 5909 5909
5892 5894 5896 5897 5897 5898 5899 5901 5903 5904 5905 5907 5908 5908 5907 5908 5908 5908 5907 5907 5907 5906 5906 5906 5906 5906 5906 5906 5906 5907 5907 5907 5907 5907 5907 5907 5907 5908 5908 5908 5908 5908 5908 5908 5908 5908 5907 5907 5907
5890 5892 5894 5894 5894 5895 5897 5899 5901 5902 5903 5904 5905 5905 5905 5905 5906 5905 5905 5905 5904 5904 5904 5903 5903 5903 5903 5903 5903 5904 5904 5904 5904 5904 5905 5905 5905 5905 5905 5905 5905 5905 5905 5905 5905 5905 5905 5905 5905
5887 5889 5890 5891 5892 5893 5895 5896 5898 5900 5901 5902 5903 5903 5903 5903 5903 5903 5902 5902 5902 5901 5901 5901 5900 5900 5900 5899 5900 5900 5900 5900 5901 5901 5901 5902 5902 5902 5902 5902 5902 5902 5903 5903 5903 5903 5903 5902 5902
5883 5886 5887 5888 5889 5890 5892 5894 5895 5897 5898 5900 5900 5901 5901 5901 5901 5900 5900 5899 5899 5898 5898 5897 5897 5897 5896 5896 5896 5896 5897 5897 5897 5898 5898 5898 5899 5898 5899 5899 5899 5899 5899 5900 5900 5900 5900 5899 5899
5880 5884 5884 5885 5886 5887 5889 5891 5893 5895 5896 5897 5898 5898 5898 5898 5898 5898 5897 5896 5896 5895 5894 5893 5893 5892 5892 5892 5892 5892 5893 5893 5893 5894 5895 5895 5895 5895 5895 5896 5895 5896 5896 5896 5896 5897 5896 5896 5896
5877 5879 5880 5881 5883 5885 5886 5888 5890 5892 5893 5894 5895 5895 5895 5896 5895 5895 5894 5893 5892 5892 5891 5890 5889 5888 5888 5888 5888 5888 5889 5889 5889 5890 5890 5891 5891 5891 5891 5892 5891 5892 5892 5892 5893 5893 5893 5892 5892
5873 5875 5877 5878 5880 5882 5884 5886 5888 5889 5890 5892 5892 5892 5893 5893 5892 5892 5891 5890 5889 5888 5888 5886 5886 5885 5885 5884 5884 5884 5884 5884 5885 5886 5886 5887 5887 5887 5887 5888 5888 5888 5888 5888 5889 5888 5888 5888 5889
5870 5872 5874 5876 5878 5879 5881 5883 5885 5886 5888 5889 5889 5889 5889 5889 5889 5888 5887 5886 5886 5885 5884 5884 5883 5882 5881 5881 5880 5880 5881 5881 5881 5882 5882 5882 5883 5883 5883 5884 5884 5884 5884 5884 5884 5884 5884 5884 5884
5867 5869 5871 5873 5875 5877 5878 5880 5882 5883 5885 5885 5886 5886 5886 5886 5885 5885 5884 5883 5882 5881 5881 5880 5879 5879 5878 5877 5877 5877 5877 5877 5877 5878 5878 5878 5878 5879 5879 5879 5879 5879 5879 5879 5879 5879 5879 5880 5880
5865 5867 5869 5871 5872 5874 5876 5878 5879 5880 5881 5882 5882 5882 5882 5882 5881 5881 5880 5879 5879 5878 5877 5876 5875 5875 5874 5873 5873 5873 5873 5873 5873 5874 5874 5874 5874 5874 5874 5874 5874 5874 5874 5874 5874 5874 5874 5874 5874
5862 5865 5867 5868 5870 5872 5874 5875 5876 5877 5878 5879 5879 5879 5879 5878 5878 5877 5876 5876 5875 5874 5873 5872 5871 5870 5870 5870 5869 5869 5869 5869 5869 5869 5869 5869 5869 5869 5869 5869 5869 5869 5869 5869 5869 5869 5868 5869 5869
5860 5863 5865 5866 5868 5869 5873 5873 5873 5874 5875 5875 5876 5876 5875 5875 5874 5873 5872 5872 5871 5870 5869 5868 5867 5866 5866 5865 5865 5865 5864 5864 5865 5864 5864 5864 5864 5863 5864 5864 5864 5863 5863 5863 5863 5863 5863 5863 5863
5859 5862 5863 5864 5865 5867 5869 5870 5870 5870 5871 5872 5872 5872 5872 5871 5870 5869 5868 5868 5867 5866 5865 5864 5864 5863 5862 5861 5860 5860 5860 5860 5859 5859 5859 5859 5859 5859 5858 5858 5858 5857 5857 5857 5857 5857 5857 5857 5857
5858 5860 5860 5862 5863 5864 5866 5866 5867 5867 5868 5868 5868 5868 5868 5867 5866 5866 5865 5864 5863 5863 5862 5861 5860 5859 5858 5857 5856 5855 5855 5855 5854 5854 5854 5854 5854 5853 5853 5853 5852 5852 5851 5851 5851 5851 5851 5851 5851
5855 5857 5858 5859 5860 5862 5862 5863 5863 5864 5864 5864 5864 5864 5864 5864 5863 5862 5861 5860 5859 5859 5858 5857 5855 5854 5853 5852 5851 5850 5850 5850 5849 5849 5849 5848 5848 5847 5847 5847 5846 5846 5845 5845 5844 5844 5844 5844 5844
5853 5855 5856 5856 5857 5859 5859 5859 5860 5860 5860 5860 5860 5860 5860 5860 5859 5858 5857 5857 5855 5855 5854 5852 5851 5850 5849 5848 5846 5845 5844 5844 5843 5843 5842 5842 5841 5841 5840 5840 5839 5839 5839 5838 5837 5837 5837 5837 5837
5850 5853 5853 5854 5854 5855 5856 5856 5856 5856 5856 5856 5856 5856 5856 5855 5855 5854 5853 5853 5852 5851 5850 5848 5847 5846 5844 5843 5841 5840 5839 5838 5837 5837 5836 5835 5834 5834 5833 5833 5832 5832 5831 5831 5830 5830 5830 5830 5830
5848 5849 5851 5851 5853 5853 5854 5854 5853 5852 5852 5852 5852 5852 5851 5851 5851 5850 5849 5848 5847 5846 5845 5843 5842 5841 5839 5837 5836 5834 5833 5831 5831 5829 5829 5828 5827 5826 5826 5825 5824 5824 5823 5823 5822 5822 5822 5822 5822
5846 5847 5848 5849 5850 5850 5850 5852 5851 5849 5849 5849 5848 5848 5847 5847 5846 5845 5844 5843 5843 5841 5840 5839 5837 5835 5833 5831 5830 5828 5826 5825 5824 5822 5821 5820 5819 5818 5817 5817 5816 5815 5815 5815 5814 5814 5814 5814 5814
5843 5845 5846 5846 5848 5849 5848 5848 5848 5845 5845 5845 5844 5843 5843 5842 5842 5840 5839 5838 5837 5836 5835 5834 5832 5830 5827 5825 5824 5822 5820 5818 5816 5815 5813 5812 5811 5809 5809 5808 5807 5806 5806 5806 5806 5806 5806 5806 5806
5841 5844 5846 5846 5846 5847 5844 5844 5844 5841 5841 5840 5840 5839 5839 5838 5837 5836 5835 5834 5832 5831 5830 5828 5826 5824 5821 5819 5817 5815 5813 5810 5808 5807 5805 5804 5802 5801 5800 5799 5798 5797 5797 5797 5797 5797 5797 5797 5797
5839 5841 5844 5845 5845 5844 5840 5840 5839 5837 5836 5836 5836 5835 5834 5833 5832 5831 5830 5829 5827 5826 5824 5822 5820 5818 5815 5813 5811 5808 5806 5803 5801 5800 5798 5796 5794 5792 5791 5789 5788 5788 5787 5787 5787 5787 5787 5788 5788
5836 5837 5838 5839 5839 5839 5838 5836 5835 5833 5832 5832 5831 5831 5830 5829 5828 5826 5825 5824 5822 5820 5818 5816 5814 5812 5809 5806 5804 5802 5799 5796 5794 5792 5790 5788 5786 5784 5782 5781 5780 5779 5778 5778 5778 5778 5778 5779 5779
5833 5834 5834 5835 5836 5836 5835 5833 5832 5829 5828 5828 5827 5826 5825 5824 5823 5821 5820 5818 5817 5815 5813 5810 5808 5806 5803 5801 5798 5795 5793 5790 5787 5785 5782 5780 5779 5777 5775 5773 5772 5771 5770 5769 5769 5769 5769 5770 5770
5831 5831 5830 5831 5831 5832 5832 5832 5827 5826 5825 5823 5822 5821 5820 5819 5817 5816 5814 5813 5811 5809 5807 5805 5802 5800 5797 5795 5792 5789 5787 5784 5781 5779 5776 5774 5772 5770 5768 5766 5765 5763 5763 5762 5761 5761 5761 5761 5762
5827 5827 5827 5828 5828 5827 5827 5829 5823 5822 5820 5819 5818 5816 5815 5814 5812 5810 5809 5807 5805 5803 5801 5799 5797 5794 5792 5789 5786 5783 5781 5778 5775 5772 5770 5768 5766 5764 5762 5761 5759 5757 5756 5755 5755 5754 5754 5754 5754